User: anonymous   Login
Location: Bonningues
(50.7927°N, 2.0150°E)
Time: 11:04:17
(UTC+00:00)
Language:

Cosmos 1271 Rocket - Orbit

View from above orbital plane
View from above orbital plane
View from above satellite
View from above satellite

Ground track
Ground track

The orbit data is extracted from the following two-line orbital elements,

1 12465U 81046B   20299.87368137 +.00001143 +00000-0 +59471-4 0  9991
2 12465 081.2440 054.2667 0034120 177.6892 182.4501 15.14713121140023
Epoch (UTC): 25 October 2020 20:58:06
Eccentricity: 0.0034120
inclination: 81.2440°
perigee height: 498 km
apogee height: 545 km
right ascension of ascending node: 54.2667°
argument of perigee: 177.6892°
revolutions per day: 15.14713121
mean anomaly at epoch: 182.4501°
orbit number at epoch: 14002

The dashed part of the orbit path shows where the satellite is in the earth's shadow,  

DLR